Regional Weather Roundup
Issued by NWS

Home | Current Version | Previous Version | Graphics & Text | Print | Product List | Glossary On
Versions: 1 2 3 4 5 6 7 8 9 10 11 12 13 14 15 16 17 18 19 20 21 22 23 24 25 26 27 28 29 30 31 32 33 34 35 36 37 38 39 40 41 42 43 44 45 46 47 48 49 50
842
ASUS43 KDMX 242106
RWRIA

WEATHER ROUNDUP FOR IOWA
NATIONAL WEATHER SERVICE DES MOINES IA
300 PM CST FRI NOV 24 2017

NOTE: "FAIR" INDICATES FEW OR NO CLOUDS BELOW 12,000 FEET WITH NO
SIGNIFICANT WEATHER AND/OR OBSTRUCTIONS TO VISIBILITY.

* - THESE STATIONS ARE NOT NWS STATIONS...THUS NOT UNDER NWS
QUALITY CONTROL.  THEY ALSO DO NOT REPORT WEATHER SUCH
AS PRECIPITATION OR FOG.

IAZ001>003-012>014-020>022-031>034-043>046-242200-
   NORTHWEST IOWA

CITY           SKY/WX    TMP DP  RH WIND       PRES   REMARKS
CARROLL *      SUNNY     66  39  37 N28G39    29.56R
CHEROKEE *     MOSUNNY   65  34  32 NW20G28   29.54S
DENISON *      SUNNY     66  39  37 N25G36    29.58R
LE MARS *      MOSUNNY   61  41  48 NW30G39   29.58R
ORANGE CITY *  CLOUDY    61  45  55 NW30G39   29.58R
SHELDON *      MOSUNNY   57  41  54 NW26G39   29.55R
SIOUX CITY     PTSUNNY   64  36  35 NW32G45   29.58R
SPENCER        CLOUDY    60  40  47 NW28G39   29.53R
STORM LAKE *   SUNNY     64  36  34 NW24G39   29.54R
$$

IAZ055>058-069>071-079>083-090>094-242200-
   SOUTHWEST IOWA

CITY           SKY/WX    TMP DP  RH WIND       PRES   REMARKS
ATLANTIC *     SUNNY     66  41  39 N23G31    29.58R
AUDUBON *      SUNNY     64  41  42 N18G32    29.58R
CLARINDA *     SUNNY     70  43  37 N22G29      N/A
COUNCIL BLFS * CLOUDY    68  39  34 N24G36    29.60R
CRESTON *      SUNNY     66  41  39 NW28G33   29.57R
HARLAN  *      SUNNY     66  41  39 N25G38    29.61R
LAMONI         SUNNY     73  42  32 W22       29.52R
RED OAK *      CLOUDY    68  41  37 N28G35    29.58R
SHENANDOAH *   CLOUDY    68  41  37 N25G38    29.58R
$$

IAZ047>049-059>061-072>074-084-242200-
   CENTRAL IOWA

CITY           SKY/WX    TMP DP  RH WIND       PRES   REMARKS
AMES           SUNNY     66  43  43 NW23G33   29.51R
ANKENY *       SUNNY     66  43  42 NW21G28   29.52R
BOONE *        SUNNY     64  41  42 N23G36    29.51R
CHARITON *     SUNNY     70  41  35 W22G29    29.50R
DES MOINES     PTSUNNY   67  41  38 NW25G37   29.51R
GRINNELL*      SUNNY     68  40  36 W20G26    29.47R
KNOXVILLE *    MOSUNNY   70  39  32 W22G29    29.47R
MARSHALLTOWN   SUNNY     66  43  43 NW29G36   29.47R
NEWTON *       SUNNY     68  41  37 W23       29.49R
PELLA *        SUNNY     69  38  32 W16G25    29.49R
PERRY *          N/A     64  36  36 N26G38    29.54R
$$

IAZ004>006-015-016-023>025-035-036-242200-
   NORTH CENTRAL IOWA

CITY           SKY/WX    TMP DP  RH WIND       PRES   REMARKS
ALGONA *       CLOUDY    64  37  36 NW17G24   29.49S
CLARION *      SUNNY     64  41  42 NW25G35   29.50R
ESTHERVILLE    CLOUDY    60  38  43 NW18G32   29.49S
FORT DODGE *   SUNNY     65  41  41 NW13G24   29.53R
MASON CITY     SUNNY     63  40  42 NW21G31   29.48R
FOREST CITY *    N/A     63  37  39 NW18G26   29.48R
WEBSTER CITY * SUNNY     66  41  39 NW26G33   29.49R
IOWA FALLS *     N/A     66  42  42 NW29G35   29.49R
$$

IAZ007>011-017>019-026>030-037>042-050>054-066-242200-
   NORTHEAST IOWA

CITY           SKY/WX    TMP DP  RH WIND       PRES   REMARKS
CEDAR RAPIDS   SUNNY     69  40  34 W20G31    29.42R
CHARLES CITY * SUNNY     63  41  45 N20G31    29.44R
CLINTON *      SUNNY     69  41  36 SW24G30   29.40F
DECORAH *      SUNNY     61  43  51 W12G22    29.40R
DUBUQUE        SUNNY     68  39  34 SW21G32   29.37S
MONTICELLO *   SUNNY     68  39  34 W17G28    29.40R
OELWEIN *      SUNNY     63  43  48 W24G31    29.42R
WATERLOO       SUNNY     63  41  44 NW16G25   29.43R
$$

IAZ064-065-067-068-078-242200-
   EAST CENTRAL IOWA

CITY           SKY/WX    TMP DP  RH WIND       PRES   REMARKS
DAVENPORT      SUNNY     69  39  33 SW17G24   29.42F
IOWA CITY      SUNNY     73  40  30 SW20G30   29.43R
MT. PLEASANT * SUNNY     71  37  28 SW21G26   29.45S
MUSCATINE *    SUNNY     72  39  30 SW20G31   29.41S
QUAD CITIES    SUNNY     71  38  29 SW22G29   29.40F
$$

IAZ062-063-075>077-085>089-095>099-242200-
   SOUTHEAST IOWA

CITY           SKY/WX    TMP DP  RH WIND       PRES   REMARKS
BURLINGTON     SUNNY     72  41  32 SW23G30   29.45S
FAIRFIELD *    SUNNY     72  37  28 SW18G25   29.45R
FORT MADISON * SUNNY     72  39  30 SW15G23   29.47S
KEOKUK *       SUNNY     73  37  27 SW25G32   29.46S
OSKALOOSA *      N/A     71  39  31 W23G31    29.47R
OTTUMWA        SUNNY     72  40  31 W22G28    29.46R
WASHINGTON *   SUNNY     72  39  30 SW22G29   29.44R
$$

ABBREVIATIONS USED IN REMARKS
   TC - TEMPERATURES IN CELSIUS
  WCI - WIND CHILL INDEX
   HX - HEAT INDEX
  VSB - VISIBILITY
$$





USA.gov is the U.S. government's official web portal to all federal, state and local government web resources and services.